[[{"header":{"parameterUnit":"m.s-1","parameterCategory":1,"la1":30.2991,"la2":30.254,"lo1":-89.0895,"lo2":-89.0444,"dy":0.0017,"dx":0.0017,"nx":28,"ny":28,"refTime":"2025-06-17T21:00:00:Z","depth":0,"parameterNumber":2,"parameterNumberName":"U-component_of_WINDS"},"data":[0,0,0,0,0,0,0,0,0,0,0,0,0,0,0,0,0,0,0,0,0,0,0,0,0,0,0,0,0,0,0,0,0,0,0,0,0,0,0,0,0,0,0,0,0,0,0,0,0,0,0,0,0,0,0,0,0,0,-0.4889,-0.4888,0,-0.4784,-0.4783,-0.4782,-0.4745,-0.4746,-0.4746,-0.4747,-0.4637,-0.4634,-0.463,0,0,0,0,0,0,0,0,0,0,0,0,0,-0.5057,-0.5054,-0.4889,-0.4888,-0.4886,-0.4784,-0.4783,-0.4781,-0.4745,-0.4746,-0.4746,-0.4747,-0.4638,-0.4634,-0.463,0,0,0,0,0,0,0,0,0,0,0,0,0,-0.4971,-0.5053,-0.4889,-0.4856,-0.4852,-0.4784,-0.4783,-0.4781,-0.4745,-0.4746,-0.4746,-0.4747,-0.4639,-0.4634,-0.463,-0.4586,0,0,-0.4614,-0.4612,0,0,0,0,0,0,0,0,-0.4976,-0.4965,-0.4862,-0.4858,-0.4854,-0.4778,-0.4802,-0.4716,-0.4745,-0.4786,-0.4747,-0.4747,-0.4683,-0.4675,-0.4654,-0.4581,-0.4577,-0.4614,-0.4611,-0.4609,-0.4607,0,0,0,0,0,0,0,-0.4982,-0.4969,-0.4847,-0.4861,-0.4856,-0.4846,-0.4835,-0.4785,-0.4732,-0.4782,-0.4779,-0.4768,-0.4681,-0.4659,-0.4651,-0.4575,-0.4614,-0.461,-0.4607,-0.4605,-0.4462,-0.4462,0,0,0,0,0,0,-0.4994,-0.4975,-0.4851,-0.4844,-0.4918,-0.4843,-0.483,-0.4802,-0.4733,-0.4723,-0.4767,-0.4766,-0.4667,-0.4657,-0.4647,-0.4592,-0.4609,-0.4604,-0.4601,-0.4463,-0.4462,-0.4461,0,0,0,0,0,0,-0.4998,-0.4983,-0.4855,-0.4909,-0.4892,-0.4839,-0.4808,-0.48,-0.4777,-0.4721,-0.4712,-0.4754,-0.4667,-0.4654,-0.4602,-0.4587,-0.4602,-0.4597,-0.4464,-0.4463,-0.4462,-0.4481,0,0,0,0,0,0,-0.5002,-0.4985,-0.4968,-0.4908,-0.4889,-0.4812,-0.4807,-0.4797,-0.4769,-0.4767,-0.4706,-0.4697,-0.4666,-0.461,-0.4597,-0.4581,-0.4594,-0.4465,-0.4464,-0.4462,-0.4481,-0.4481,-0.448,0,0,0,0,0,-0.5009,-0.4977,-0.4967,-0.4952,-0.4867,-0.4811,-0.48,-0.4766,-0.4768,-0.475,-0.4715,-0.4699,-0.4591,-0.4605,-0.459,-0.4572,-0.4466,-0.4464,-0.4462,-0.4482,-0.4481,-0.448,0,0,0,0,0,0,-0.5035,-0.4968,-0.4957,-0.4905,-0.4864,-0.4805,-0.4782,-0.4766,-0.4723,-0.4723,-0.4682,-0.4669,-0.462,-0.4591,-0.4607,-0.4527,-0.4528,-0.4523,-0.4548,-0.4546,-0.4545,-0.4553,-0.4589,0,0,0,0,0,-0.5035,-0.4996,-0.494,-0.4899,-0.488,-0.4835,-0.4809,-0.4787,-0.4743,-0.4725,-0.4685,-0.4643,-0.4599,-0.4571,-0.4528,-0.4478,-0.4464,-0.4458,-0.4458,-0.4457,-0.4453,-0.4424,-0.4421,-0.4455,-0.4455,-0.4456,0,0,-0.5034,-0.4993,-0.497,-0.4904,-0.4869,-0.483,-0.482,-0.4778,-0.4748,-0.4718,-0.4667,-0.4637,-0.4586,-0.4535,-0.4511,-0.4509,-0.4441,-0.4455,-0.4455,-0.4451,-0.4422,-0.4419,-0.4416,-0.4454,-0.4454,-0.4455,0,0,-0.5011,-0.4977,-0.4939,-0.4906,-0.4854,-0.4825,-0.4816,-0.476,-0.4739,-0.4687,-0.4664,-0.4628,-0.4554,-0.4519,-0.4491,-0.4458,-0.4441,-0.4445,-0.444,-0.4413,-0.441,-0.4407,-0.4395,-0.4391,-0.4441,-0.4442,-0.4442,0,-0.5016,-0.4955,-0.4922,-0.4881,-0.4853,-0.4825,-0.4787,-0.4756,-0.4693,-0.4673,-0.4674,-0.4581,-0.4545,-0.4485,-0.4477,-0.4456,-0.4444,-0.4451,-0.4413,-0.441,-0.4407,-0.4395,-0.439,-0.4442,-0.4442,-0.4442,-0.4442,0,-0.4964,-0.4922,-0.4898,-0.4839,-0.4808,-0.4769,-0.4729,-0.4702,-0.4683,-0.4653,-0.4601,-0.4557,-0.4505,-0.449,-0.447,-0.4427,-0.4428,-0.4422,-0.4421,-0.4405,-0.4393,-0.4388,-0.4443,-0.4443,-0.4443,-0.4443,0,0,-0.4953,-0.4877,-0.4869,-0.4842,-0.4784,-0.4751,-0.4711,-0.4661,-0.4638,-0.4596,-0.4561,-0.45,-0.4494,-0.4463,-0.4439,-0.4415,-0.4391,-0.4411,-0.4409,-0.4408,-0.434,-0.4345,-0.434,-0.4381,-0.438,-0.4379,-0.4344,0,-0.4922,-0.4849,-0.4819,-0.476,-0.4721,-0.4696,-0.4661,-0.4621,-0.4593,-0.4556,-0.4525,-0.4482,-0.4477,-0.4459,-0.4434,-0.4399,-0.4377,-0.4402,-0.4347,-0.4345,-0.4359,-0.4333,-0.4338,-0.4307,-0.4339,-0.4338,-0.4338,0,-0.4876,-0.4834,-0.4772,-0.472,-0.4702,-0.4672,-0.4624,-0.4589,-0.4544,-0.4525,-0.4492,-0.447,-0.4427,-0.4431,-0.437,-0.4388,-0.4364,-0.4344,-0.4342,-0.4334,-0.4339,-0.4324,-0.4297,-0.4292,-0.433,-0.4331,-0.4331,0,-0.4873,-0.4802,-0.4755,-0.4733,-0.4671,-0.465,-0.4623,-0.4579,-0.4552,-0.451,-0.4491,-0.4445,-0.4419,-0.4384,-0.435,-0.4356,-0.4293,-0.4294,-0.4275,-0.4276,-0.4261,-0.4262,-0.4228,-0.4248,-0.4248,-0.4249,-0.4249,0,-0.4841,-0.4803,-0.4753,-0.4725,-0.4682,-0.4648,-0.4607,-0.4578,-0.4539,-0.4504,-0.448,-0.4448,-0.4406,-0.4368,-0.4342,-0.4296,-0.4284,-0.4268,-0.4261,-0.4269,-0.4271,-0.4251,-0.4252,-0.4247,-0.4248,-0.4248,-0.4248,0,-0.4829,-0.4794,-0.4742,-0.4688,-0.4674,-0.4645,-0.4599,-0.457,-0.4542,-0.4498,-0.4486,-0.4441,-0.4396,-0.4359,-0.43,-0.4282,-0.4233,-0.4226,-0.4248,-0.4244,-0.4227,-0.4229,-0.4178,-0.417,-0.4197,-0.4197,-0.4197,0,-0.481,-0.4781,-0.4725,-0.47,-0.4674,-0.4634,-0.4606,-0.4572,-0.4543,-0.4491,-0.4468,-0.4421,-0.4382,-0.431,-0.4272,-0.4227,-0.4217,-0.4203,-0.421,-0.422,-0.4216,-0.4217,-0.4214,-0.4202,-0.4201,-0.4201,-0.4201,0,-0.478,-0.4764,-0.4725,-0.468,-0.4647,-0.461,-0.4572,-0.4553,-0.4512,-0.4481,-0.4435,-0.4405,-0.4345,-0.4298,-0.4249,-0.4221,-0.4204,-0.42,-0.4193,-0.42,-0.4214,-0.4205,-0.4245,-0.4201,-0.4201,-0.4201,-0.4201,-0.4201,-0.4763,-0.4736,-0.4692,-0.465,-0.4618,-0.4583,-0.4554,-0.4522,-0.4483,-0.4432,-0.4415,-0.4367,-0.4324,-0.4256,-0.4228,-0.419,-0.4188,-0.4178,-0.4176,-0.4173,-0.4174,-0.4222,-0.4181,-0.4181,-0.4181,-0.4181,-0.4181,0,-0.473,-0.4702,-0.4663,-0.4611,-0.4577,-0.4566,-0.4524,-0.4497,-0.4455,-0.4417,-0.4379,-0.4326,-0.4281,-0.4241,-0.4194,-0.4171,-0.4162,-0.416,-0.416,-0.4154,-0.4178,-0.4189,-0.4168,-0.4168,-0.4168,-0.4168,-0.4168,-0.4168,-0.4709,-0.4663,-0.4643,-0.4581,-0.4552,-0.4506,-0.4483,-0.4451,-0.442,-0.4362,-0.4325,-0.4299,-0.426,-0.421,-0.4169,-0.4158,-0.4141,-0.4141,-0.4128,-0.4151,-0.4152,-0.4154,-0.4163,-0.4138,-0.4138,-0.4107,-0.4106,-0.4106]},{"header":{"parameterUnit":"m.s-1","parameterCategory":1,"la1":30.2991,"la2":30.254,"lo1":-89.0895,"lo2":-89.0444,"dy":0.0017,"dx":0.0017,"nx":28,"ny":28,"refTime":"2025-06-17T21:00:00:Z","depth":0,"parameterNumber":3,"parameterNumberName":"V-component_of_WINDS"},"data":[0,0,0,0,0,0,0,0,0,0,0,0,0,0,0,0,0,0,0,0,0,0,0,0,0,0,0,0,0,0,0,0,0,0,0,0,0,0,0,0,0,0,0,0,0,0,0,0,0,0,0,0,0,0,0,0,0,0,5.0909,5.0909,0,5.0963,5.0964,5.0964,5.092,5.0918,5.0916,5.0914,5.0965,5.0968,5.0971,0,0,0,0,0,0,0,0,0,0,0,0,0,5.0761,5.0764,5.0909,5.0909,5.091,5.0963,5.0964,5.0965,5.092,5.0918,5.0916,5.0913,5.0964,5.0967,5.0971,0,0,0,0,0,0,0,0,0,0,0,0,0,5.0821,5.0765,5.0909,5.0894,5.0894,5.0963,5.0964,5.0965,5.0921,5.0918,5.0915,5.0912,5.0962,5.0967,5.0972,5.1056,0,0,5.0986,5.0988,0,0,0,0,0,0,0,0,5.0818,5.0826,5.0896,5.0895,5.0895,5.0932,5.093,5.0995,5.0921,5.091,5.0914,5.0911,5.0956,5.0961,5.0977,5.1058,5.106,5.0986,5.0989,5.0991,5.0992,0,0,0,0,0,0,0,5.0813,5.0824,5.093,5.0897,5.0896,5.0883,5.0889,5.0942,5.0948,5.0911,5.0908,5.0915,5.0955,5.0973,5.0978,5.1061,5.0986,5.099,5.0993,5.0995,5.1214,5.1217,0,0,0,0,0,0,5.0811,5.0821,5.0928,5.0932,5.0849,5.0888,5.0895,5.0923,5.0947,5.0948,5.0918,5.0913,5.0966,5.0972,5.0979,5.108,5.0991,5.0995,5.0998,5.1211,5.1215,5.1218,0,0,0,0,0,0,5.0808,5.0821,5.0926,5.0875,5.0888,5.0894,5.0926,5.0925,5.0943,5.0952,5.0952,5.0935,5.0964,5.0973,5.1038,5.1081,5.0997,5.1001,5.1208,5.1212,5.1217,5.1282,0,0,0,0,0,0,5.0804,5.0821,5.0854,5.0877,5.0891,5.0985,5.0929,5.0928,5.0952,5.0946,5.0969,5.097,5.0963,5.1031,5.1042,5.1086,5.1005,5.1204,5.121,5.1215,5.1276,5.1288,5.1298,0,0,0,0,0,5.0799,5.0869,5.0856,5.0869,5.0933,5.0988,5.0996,5.0988,5.0955,5.0988,5.0994,5.0969,5.1074,5.1038,5.105,5.1096,5.1201,5.1208,5.1215,5.127,5.1285,5.1298,0,0,0,0,0,0,5.0849,5.0872,5.0858,5.0937,5.0961,5.098,5.1021,5.1004,5.1036,5.1029,5.1016,5.1022,5.109,5.1099,5.1058,5.1179,5.1132,5.1142,5.117,5.1185,5.1196,5.1192,5.1009,0,0,0,0,0,5.087,5.0915,5.0931,5.0999,5.1012,5.1015,5.1039,5.1031,5.1054,5.1064,5.1074,5.1097,5.1135,5.116,5.1196,5.1277,5.128,5.1314,5.1325,5.1335,5.1343,5.1386,5.1401,5.1241,5.1241,5.1241,0,0,5.0912,5.093,5.0959,5.101,5.1028,5.1073,5.1024,5.1073,5.1106,5.107,5.1133,5.1142,5.1165,5.1239,5.1272,5.1248,5.1388,5.1343,5.1351,5.1354,5.1395,5.141,5.1423,5.1246,5.1245,5.1244,0,0,5.1013,5.1031,5.109,5.111,5.1138,5.1139,5.1153,5.1176,5.1181,5.1243,5.1218,5.1255,5.1322,5.134,5.1358,5.1466,5.1444,5.1478,5.1537,5.1579,5.1592,5.1603,5.1641,5.1655,5.1486,5.1486,5.1486,0,5.1061,5.113,5.1122,5.1174,5.1197,5.1169,5.1228,5.1246,5.1284,5.13,5.1274,5.1357,5.1371,5.1448,5.1475,5.149,5.1505,5.1475,5.1591,5.1602,5.1612,5.1648,5.1663,5.149,5.149,5.1489,5.1489,0,5.1188,5.1236,5.128,5.132,5.1347,5.1402,5.1402,5.143,5.142,5.1424,5.1487,5.1504,5.1542,5.156,5.1549,5.1635,5.162,5.1593,5.1546,5.1631,5.1665,5.1679,5.1496,5.1494,5.1493,5.1492,0,0,5.1321,5.1357,5.1373,5.1391,5.142,5.1456,5.1509,5.1549,5.1573,5.16,5.1644,5.1701,5.1676,5.1696,5.1688,5.1725,5.1809,5.1693,5.1693,5.1713,5.1904,5.1925,5.1941,5.1795,5.1797,5.1799,5.1902,0,5.1423,5.1518,5.1513,5.1602,5.1645,5.1619,5.1666,5.1688,5.1693,5.1729,5.1733,5.1774,5.1738,5.175,5.1786,5.1791,5.1847,5.1784,5.1834,5.1836,5.1829,5.1959,5.1981,5.2077,5.1915,5.1918,5.1919,0,5.1554,5.1588,5.1682,5.1705,5.1723,5.1765,5.1801,5.1837,5.186,5.1861,5.1885,5.187,5.1922,5.1874,5.1945,5.1903,5.1922,5.1928,5.1932,5.1936,5.1883,5.1966,5.2108,5.2122,5.194,5.1938,5.1937,0,5.1642,5.1711,5.1776,5.1791,5.182,5.185,5.1863,5.1885,5.1909,5.1939,5.1955,5.199,5.201,5.2037,5.2032,5.1997,5.2104,5.2056,5.2105,5.2105,5.2128,5.2127,5.2275,5.2142,5.2142,5.2141,5.2141,0,5.1756,5.1814,5.1816,5.1856,5.192,5.1912,5.1975,5.1984,5.2004,5.2044,5.2023,5.206,5.2051,5.2088,5.2084,5.2143,5.2152,5.2153,5.2151,5.2155,5.2155,5.2167,5.2161,5.2145,5.2144,5.2144,5.2143,0,5.1865,5.1868,5.1937,5.196,5.1966,5.2013,5.203,5.2067,5.2071,5.2121,5.2133,5.2137,5.218,5.2177,5.2224,5.2222,5.2295,5.2285,5.2288,5.2285,5.2335,5.233,5.2496,5.2517,5.237,5.2372,5.2373,0,5.1938,5.1982,5.201,5.2036,5.2052,5.2094,5.2119,5.2113,5.214,5.2171,5.2204,5.2245,5.2277,5.2345,5.2352,5.2388,5.2378,5.2434,5.2383,5.2386,5.2379,5.2376,5.2381,5.2444,5.2445,5.2447,5.2448,0,5.2066,5.2066,5.2104,5.2143,5.2174,5.2204,5.2231,5.2253,5.225,5.2281,5.2325,5.235,5.2399,5.244,5.2474,5.2485,5.2466,5.2464,5.2477,5.2481,5.2481,5.2482,5.2314,5.246,5.2459,5.2458,5.2457,5.2457,5.2159,5.2197,5.2223,5.2266,5.2287,5.2313,5.2349,5.2357,5.2395,5.2436,5.2429,5.2479,5.25,5.2545,5.256,5.2597,5.2577,5.2596,5.2601,5.2606,5.2611,5.2476,5.2603,5.2603,5.2602,5.2602,5.2602,0,5.2286,5.2302,5.2342,5.2382,5.2415,5.2396,5.2425,5.2454,5.2499,5.2522,5.2555,5.2605,5.2644,5.2654,5.2691,5.2719,5.2711,5.2729,5.2727,5.273,5.2627,5.2612,5.2735,5.2735,5.2735,5.2735,5.2735,5.2735,5.2356,5.2421,5.2424,5.2497,5.2511,5.2561,5.258,5.2603,5.2622,5.268,5.2713,5.272,5.2737,5.2776,5.281,5.2812,5.2826,5.2848,5.2846,5.275,5.2737,5.2724,5.271,5.2851,5.2851,5.2945,5.2946,5.2947]}]]